Wind_Speed
14 13 13 12 12 14 12 9 10 11 9 7 6 6 3 4 1 9 9 3 2 1 4 5 5 7 7 8 8 8 8 7 6 5 4 4 5 6 5 7 9 9 9 10 11 13 17 20 23 25 25 26 27 28 27 24 22 23 24 23 23 24 25 25 24 24 24 23 21 20 20 19 18 18 17 16 16 16 17 18 19 21 21 20 20 21 23
14 14 16 16 14 12 9 10 10 8 7 8 7 5 3 2 4 7 5 1 1 3 5 5 5 7 7 8 9 9 9 8 8 6 4 2 2 5 6 8 11 13 14 15 13 12 12 13 14 17 17 17 18 20 21 22 23 25 27 28 28 29 30 29 27 26 25 24 23 22 22 22 21 20 19 17 17 17 17 19 20 21 21 20 21 22 24
14 15 15 12 9 10 10 11 12 9 8 10 7 3 2 4 6 5 2 2 3 3 2 4 6 7 7 7 7 8 9 9 11 10 6 3 2 4 6 8 12 14 15 18 17 15 13 12 10 9 9 9 9 10 12 16 19 23 26 30 32 33 33 32 30 28 27 26 26 25 24 24 23 22 20 19 18 17 18 19 20 20 20 19 22 25 25
14 14 12 8 7 11 11 10 10 12 13 12 8 3 3 4 4 2 0 3 4 3 2 5 6 6 6 6 7 7 8 10 11 11 8 6 5 5 5 6 8 11 14 17 18 18 15 12 10 7 6 6 6 6 8 10 13 17 21 23 26 29 31 31 29 28 27 26 26 26 26 25 24 23 21 20 20 19 19 20 20 20 21 21 23 26 26
17 14 12 15 13 12 8 6 4 6 6 8 5 3 5 4 2 2 6 6 4 3 4 5 5 4 5 6 7 8 8 9 10 9 9 8 6 6 6 5 5 8 13 16 17 17 16 13 10 8 6 6 5 5 6 7 9 13 16 17 18 21 25 28 28 28 27 26 26 25 26 25 24 23 23 22 22 22 23 23 23 23 23 25 25 25 25
18 17 18 22 11 6 5 7 8 3 1 7 8 6 1 2 2 5 7 4 3 5 6 6 5 5 6 6 8 9 8 9 9 8 8 8 7 6 5 4 5 8 13 15 14 14 15 13 11 9 8 6 6 5 6 6 7 9 12 13 13 14 17 22 26 27 27 28 27 26 25 24 23 22 22 23 24 24 25 26 26 26 26 26 27 26 27
15 17 17 16 5 3 2 5 8 8 4 3 4 5 2 2 3 6 6 3 3 4 5 6 5 5 6 5 6 6 6 7 6 6 7 8 7 6 4 3 6 9 12 14 13 13 13 12 11 9 7 6 7 7 5 2 2 4 7 9 10 11 12 15 20 24 26 29 30 26 24 23 21 19 19 20 21 22 24 26 27 27 27 28 28 28 30
11 12 9 5 3 3 4 6 7 8 7 5 3 6 7 7 8 8 6 4 4 4 4 5 5 5 5 4 4 4 4 5 4 4 4 5 6 6 4 4 7 10 12 13 13 13 12 11 10 9 7 6 7 9 7 4 2 2 3 5 8 9 7 7 10 13 17 22 21 16 15 17 16 13 13 15 17 19 21 24 25 26 28 29 29 29 30
8 8 8 9 9 5 3 7 5 4 5 5 7 8 7 6 8 9 6 6 7 6 5 6 6 5 5 5 5 5 4 4 3 3 3 3 3 4 3 3 5 9 12 13 13 13 11 10 9 8 7 7 8 12 12 10 7 5 3 3 5 6 7 6 6 6 8 10 9 6 6 8 9 9 11 12 12 14 16 18 19 21 23 26 28 29 30
5 8 11 11 9 1 8 10 8 6 5 6 5 5 6 6 7 9 7 7 8 8 8 7 6 6 6 7 7 6 6 5 4 4 4 3 1 1 3 1 3 7 12 14 16 15 11 8 8 7 7 8 10 13 15 16 15 13 10 7 6 6 8 9 9 9 7 6 4 3 3 3 5 8 10 10 10 10 10 12 13 14 16 18 21 24 27
9 10 11 10 7 1 6 9 7 4 5 6 3 3 8 10 8 8 7 7 7 8 8 7 6 6 7 7 8 8 8 5 5 5 4 3 3 2 6 6 3 3 11 16 15 12 9 8 7 6 6 7 9 12 13 15 15 13 12 13 12 10 9 9 9 9 8 7 5 4 3 3 6 9 10 9 10 10 10 10 11 11 11 13 15 18 21
12 14 13 12 10 5 5 8 5 3 5 6 4 4 9 11 9 6 5 5 6 7 6 5 5 5 6 7 7 7 7 4 3 4 4 5 5 4 4 7 8 5 5 14 14 12 10 9 7 6 6 6 8 10 11 11 10 8 8 10 13 16 15 12 12 12 11 11 10 9 8 7 8 11 11 10 11 11 11 11 11 11 11 12 13 15 17
11 13 15 16 11 4 6 7 6 7 6 4 5 6 8 8 7 4 4 5 5 7 6 5 4 4 5 6 6 6 6 5 3 4 6 8 8 6 5 4 5 8 5 5 9 10 10 9 7 5 6 7 8 9 9 9 8 7 7 8 9 12 14 13 12 10 9 10 11 10 9 9 8 8 9 8 7 7 7 7 6 7 8 10 11 13 16
12 13 15 15 9 10 11 9 10 12 7 4 6 7 6 6 5 3 4 4 5 6 5 4 4 5 5 5 5 6 6 5 4 4 6 9 10 8 6 5 3 4 8 7 5 7 10 8 5 4 6 8 8 8 8 8 7 6 6 8 9 10 11 10 9 9 9 9 9 8 7 7 7 7 6 5 4 4 4 5 5 6 6 6 7 7 9
13 15 16 12 6 10 10 8 10 11 8 6 7 7 6 8 7 5 4 4 5 5 4 3 5 6 5 4 5 7 7 6 5 4 5 7 9 8 5 5 4 3 5 6 7 7 7 4 2 3 4 6 7 7 6 7 6 5 4 5 6 7 8 8 8 9 9 9 8 8 8 8 8 8 8 7 7 7 8 8 9 8 7 6 4 4 4
8 8 8 6 7 10 8 8 9 8 6 4 5 6 8 9 9 6 5 5 5 5 4 4 4 5 4 4 5 7 7 6 5 6 5 6 8 7 6 5 5 5 4 2 2 4 3 0 2 3 3 3 4 5 5 5 5 5 5 4 4 5 6 8 8 9 10 10 9 10 10 11 11 11 11 11 11 11 11 11 11 10 9 8 7 6 5
9 8 4 2 6 7 7 8 7 6 5 2 2 5 8 10 8 7 6 5 5 5 5 4 4 5 5 6 7 7 5 5 5 6 6 7 8 8 7 7 6 6 6 5 4 2 1 2 3 3 2 2 3 4 5 5 6 6 5 5 5 5 6 7 8 9 9 10 10 11 12 12 13 13 13 12 12 12 11 11 10 10 10 9 9 9 9
12 11 6 2 6 5 4 6 5 5 3 2 5 8 8 8 8 8 7 5 4 4 5 5 5 5 5 6 7 6 4 5 6 6 6 6 7 7 7 7 7 7 7 7 6 6 6 5 5 4 3 3 3 4 5 6 6 6 6 6 6 5 5 6 6 6 7 7 8 8 8 8 9 9 10 10 9 9 9 9 9 9 9 9 9 9 9
12 10 7 6 7 6 7 7 6 4 2 3 7 9 8 8 9 8 7 6 5 5 6 5 6 6 6 7 7 5 4 5 6 5 6 6 6 6 6 6 6 6 6 7 7 7 7 6 6 5 5 5 5 5 5 5 6 6 6 6 5 5 5 5 5 5 5 5 5 4 4 4 5 5 5 6 6 6 7 7 7 7 8 8 8 8 8
13 12 11 8 6 6 10 12 9 5 5 9 10 10 8 8 9 8 7 7 6 6 6 5 6 7 7 7 6 4 3 4 5 6 7 7 7 6 6 5 5 5 5 6 7 7 7 7 6 6 7 7 6 6 6 6 6 6 5 5 5 5 5 4 4 4 4 4 4 4 3 3 3 3 3 4 4 5 6 6 6 6 7 7 8 8 8
12 13 13 11 8 9 13 15 11 7 9 13 13 11 9 10 10 9 9 8 7 6 7 6 7 8 9 8 6 5 4 4 5 6 7 7 7 6 5 5 5 4 4 4 5 6 7 7 7 6 6 6 6 6 5 5 5 5 5 5 5 5 4 4 4 4 4 4 4 4 4 4 4 3 4 4 4 5 5 6 6 6 7 7 7 8 8
10 12 13 13 13 14 15 14 10 8 11 14 12 9 9 10 10 10 11 10 7 6 6 7 8 9 9 8 7 6 5 5 5 6 6 7 7 7 6 6 5 4 4 4 4 4 5 5 6 5 5 4 4 3 3 3 3 4 4 4 4 4 5 5 5 5 5 5 5 5 5 5 5 4 4 4 4 5 5 5 6 6 6 7 7 7 8
10 9 8 9 11 12 14 14 13 12 13 13 11 9 10 10 9 9 11 10 7 7 7 7 9 10 9 8 7 6 6 6 6 6 7 7 8 7 7 6 5 4 4 3 3 3 2 3 3 3 4 4 3 3 3 3 3 3 3 3 4 4 4 5 5 5 5 5 5 5 5 5 4 4 4 4 4 4 4 5 6 6 7 7 7 7 8
12 10 7 7 9 11 13 16 17 16 15 13 11 10 11 10 8 9 12 11 8 7 7 8 10 11 9 9 9 8 7 7 7 7 8 8 8 8 7 7 6 5 4 4 3 3 2 2 3 3 4 4 4 4 5 5 5 5 4 4 5 5 5 5 5 4 4 4 4 4 4 4 3 3 3 3 4 4 5 6 6 7 7 8 8 8 9
16 13 10 9 10 12 13 15 17 18 18 16 12 11 11 11 10 11 14 12 9 7 7 8 10 10 10 10 9 8 8 8 8 8 8 8 8 8 8 7 6 5 4 4 4 3 3 3 3 4 5 5 5 6 6 6 6 6 6 6 6 6 5 5 4 4 3 4 4 4 4 3 3 3 3 3 4 4 5 6 7 8 9 9 9 10 10
18 16 15 13 12 13 15 17 18 18 19 17 14 12 12 11 12 13 14 13 10 8 8 9 9 9 9 9 9 9 9 8 8 8 8 8 8 8 8 7 6 6 5 4 4 4 4 4 5 5 5 6 6 6 7 7 6 7 7 6 6 6 5 4 4 4 4 4 4 4 4 5 4 4 4 5 5 6 6 7 7 8 9 9 9 10 11
17 17 17 15 13 14 16 16 15 15 15 14 13 13 12 12 13 13 13 13 12 11 10 10 10 10 9 9 10 10 9 9 9 9 8 8 9 8 8 7 6 6 5 5 5 4 3 4 6 6 7 7 6 5 5 7 7 6 7 7 7 7 6 5 4 5 6 6 5 6 6 7 7 7 8 8 8 9 9 10 10 9 9 9 9 9 10
17 20 21 18 15 15 15 14 12 13 15 16 14 13 13 13 13 13 13 14 13 12 12 12 12 11 10 10 10 10 10 10 9 8 8 9 9 8 8 7 7 7 7 6 5 5 4 4 7 9 9 9 8 6 6 7 7 7 8 8 8 9 8 6 6 7 8 7 8 8 8 8 9 9 10 11 12 12 13 13 13 12 12 12 11 11 11
19 21 22 20 17 17 17 17 15 16 17 16 14 14 14 13 12 13 13 14 13 12 12 12 12 12 11 10 10 10 10 10 9 9 9 9 8 8 9 8 7 8 8 7 7 6 6 6 9 11 10 9 8 7 8 8 8 8 8 10 10 10 11 10 9 9 9 9 10 10 10 10 11 11 12 12 13 14 15 16 16 15 15 14 14 13 12
21 21 20 18 18 18 19 19 18 18 18 17 16 16 15 12 12 13 14 14 14 12 12 12 12 12 11 10 10 10 10 10 10 10 10 8 7 8 9 9 8 9 9 8 8 8 8 10 12 13 11 8 7 8 9 9 9 9 9 10 11 11 12 12 12 11 11 12 12 11 11 12 12 13 13 13 13 14 15 16 17 18 19 18 17 16 15
19 18 17 17 19 21 21 20 18 17 18 18 17 17 15 13 13 14 14 15 15 13 12 11 11 12 11 10 10 11 11 11 11 11 10 8 8 9 10 10 10 10 10 8 8 9 11 12 13 13 11 9 9 9 10 9 9 10 10 11 11 12 12 12 12 12 13 13 12 12 12 12 13 13 14 13 14 15 15 16 17 19 20 20 20 20 19
19 17 17 18 20 22 23 21 17 17 18 18 18 18 17 13 13 14 14 14 15 13 12 12 12 13 12 12 12 12 12 11 11 11 10 10 10 10 11 11 11 10 10 9 10 12 12 12 11 10 9 9 10 11 11 10 10 11 11 11 12 12 12 11 11 12 12 13 12 12 12 12 13 13 13 13 14 15 15 16 16 18 19 20 21 21 20
19 18 17 17 19 22 24 22 20 20 20 18 18 19 18 14 13 14 14 13 14 14 13 13 14 14 14 14 13 13 12 12 12 12 11 11 10 11 12 12 11 11 12 12 12 12 12 10 9 9 9 9 10 11 11 11 12 12 11 11 12 12 11 11 10 11 11 12 11 11 11 12 13 13 13 13 14 14 14 14 15 16 18 19 20 20 19
20 20 18 14 14 18 22 24 24 24 22 20 20 21 20 18 17 16 15 14 14 14 14 15 15 15 15 15 14 14 13 12 12 12 11 11 10 12 13 12 12 13 14 14 14 13 11 11 10 10 10 10 11 11 11 11 12 12 11 11 11 11 11 11 11 11 11 11 11 11 11 12 13 13 12 13 13 13 13 14 14 15 16 18 19 19 17
21 23 22 17 14 16 20 24 25 24 22 21 21 21 21 21 20 19 17 15 14 13 14 15 15 15 15 15 15 15 14 14 13 13 13 12 12 14 15 14 13 14 15 15 14 12 10 10 10 10 11 11 11 10 10 11 12 12 12 11 11 11 11 12 11 12 12 12 12 12 12 13 13 13 13 14 15 15 15 15 15 15 16 18 20 19 16
26 27 27 21 17 17 20 24 27 26 24 24 24 24 24 25 24 22 20 18 15 13 13 14 15 16 16 16 16 15 15 15 16 16 15 15 16 17 17 15 14 14 14 12 10 8 8 9 10 11 12 12 11 11 11 12 12 12 12 12 12 12 12 12 12 13 14 13 13 13 13 14 14 14 14 14 15 16 16 17 17 17 17 18 20 21 18
26 28 27 23 18 18 20 24 28 30 29 28 28 26 27 29 29 25 22 20 17 14 13 14 15 15 15 16 16 16 16 16 17 17 17 17 17 16 15 14 12 11 9 8 6 6 7 9 10 11 12 12 12 12 12 12 13 14 13 13 13 13 13 14 13 13 14 13 13 14 14 15 15 15 15 15 16 17 18 18 19 18 16 16 18 21 19
24 24 24 21 18 19 23 26 29 30 30 29 28 27 26 27 26 23 21 21 19 15 13 13 14 14 15 15 17 17 18 17 17 17 17 16 15 14 14 12 10 8 7 7 6 7 8 10 10 11 11 12 12 12 12 13 14 15 14 14 14 14 14 14 14 14 14 14 14 14 15 16 15 16 17 17 17 17 17 18 18 17 15 15 17 20 20
23 23 22 20 18 21 25 28 30 31 30 29 29 27 24 23 22 20 20 20 19 16 14 14 15 15 15 15 17 17 16 16 17 17 15 14 13 13 12 10 8 8 7 6 6 8 10 10 10 11 11 12 12 13 13 14 15 15 14 14 14 14 14 14 14 14 14 14 14 15 16 16 16 16 16 15 15 14 15 16 15 15 14 15 16 18 20
23 22 21 20 20 22 25 29 32 32 31 30 29 27 24 23 23 22 22 21 20 17 15 15 16 15 15 15 16 15 14 15 15 13 11 11 11 11 10 8 8 8 7 7 8 10 10 10 10 11 12 12 13 13 14 15 15 15 14 14 14 14 14 14 13 13 14 15 15 15 16 16 16 15 15 14 13 13 14 14 14 14 15 16 17 18 20
20 20 19 20 21 23 25 28 31 31 30 30 28 25 24 25 25 24 23 22 20 18 16 16 16 15 15 15 14 14 14 14 12 10 9 10 11 10 9 8 7 7 7 7 10 11 11 11 12 12 13 13 14 14 15 15 15 15 15 15 14 14 14 13 13 14 15 15 15 16 16 16 14 13 14 14 14 13 14 15 15 15 16 17 17 18 20
19 19 20 21 23 23 24 26 29 30 29 29 28 26 25 24 24 24 24 23 20 18 17 16 16 17 17 16 15 16 16 14 11 9 10 11 10 9 8 7 7 7 8 9 11 12 13 13 12 13 13 14 15 15 15 15 15 15 15 14 13 13 14 14 14 14 15 15 15 16 16 15 14 14 14 14 14 13 14 16 16 16 17 18 19 20 21
18 20 22 24 24 23 23 24 28 29 28 27 27 27 27 25 25 25 26 24 22 20 18 16 17 18 18 17 17 18 16 13 11 11 11 11 10 10 9 8 7 8 9 10 12 14 14 14 14 15 16 15 15 15 15 15 15 15 15 14 14 14 14 14 14 14 14 15 16 16 15 15 15 15 15 15 14 14 15 17 18 17 17 19 20 21 21
20 21 23 25 26 26 26 27 28 29 28 28 28 30 30 29 29 29 28 26 23 22 19 18 19 20 19 18 18 18 16 13 12 13 12 12 11 9 9 9 9 10 11 13 14 15 16 16 16 18 18 16 15 15 15 14 14 14 15 15 14 14 15 15 14 14 15 16 16 15 15 15 15 15 16 17 17 15 15 16 17 16 16 18 19 20 20
21 22 24 25 27 27 28 28 27 27 27 29 31 31 31 30 29 29 29 27 24 22 20 20 21 21 20 18 18 18 16 16 15 15 13 12 11 9 8 10 11 12 14 16 17 18 18 19 19 19 18 16 15 14 14 14 14 15 15 15 15 15 15 16 15 14 14 15 15 14 14 14 15 15 16 18 18 17 16 16 15 14 14 15 16 17 19
22 22 23 25 26 26 26 25 24 25 27 30 32 34 35 33 31 29 29 27 24 22 20 21 21 21 20 18 18 19 18 18 17 16 14 13 12 10 9 10 12 14 16 18 18 18 19 20 19 18 17 15 14 14 14 14 15 15 15 15 15 15 16 17 17 16 15 15 15 14 14 14 15 15 16 16 17 17 16 16 15 14 13 13 14 15 16
20 22 23 24 26 27 26 25 24 26 28 29 29 30 33 34 32 29 28 27 24 21 21 22 22 21 20 19 19 19 19 19 17 15 14 14 13 12 11 11 13 15 17 18 17 17 18 18 18 17 16 14 14 14 14 14 15 16 16 16 15 16 16 17 17 17 16 16 16 15 14 15 16 15 14 15 16 16 16 15 14 14 14 14 14 14 14
18 19 20 22 26 28 27 27 27 28 29 28 26 26 28 30 30 29 28 26 23 23 23 24 23 22 21 20 20 20 20 19 18 16 15 14 13 13 13 14 15 16 17 18 17 17 17 17 16 16 15 15 14 14 15 15 16 17 17 16 17 17 16 16 17 16 16 16 17 16 15 15 16 16 14 14 15 16 16 15 14 14 15 15 15 15 14
17 17 17 19 23 25 25 26 26 27 27 27 27 28 29 30 29 28 27 25 24 24 25 24 24 23 22 21 20 20 20 20 19 17 15 13 13 14 15 16 16 16 17 18 18 17 18 17 16 15 15 15 15 14 15 16 17 17 17 17 18 17 16 16 17 17 16 15 16 15 15 15 16 15 15 14 15 15 16 15 15 15 15 16 16 16 15
17 17 17 19 21 22 24 25 26 27 27 27 28 30 32 32 28 25 25 24 24 24 24 24 24 23 21 21 20 20 21 21 20 17 15 14 14 15 16 17 17 17 18 18 18 18 18 16 15 15 15 15 15 15 16 17 18 18 18 18 18 18 18 17 17 16 15 14 14 14 14 14 15 16 16 15 14 14 15 16 16 16 16 16 16 15 15
18 17 17 17 18 20 21 23 25 27 28 28 29 31 32 30 25 22 23 24 23 23 23 23 23 22 21 21 21 21 21 20 19 18 17 15 15 15 16 18 18 19 19 19 19 18 17 16 15 15 15 15 15 15 16 17 18 18 17 17 18 19 19 18 17 15 14 13 14 14 14 13 14 15 16 15 15 14 15 15 15 15 16 16 16 15 15
19 17 15 15 18 21 22 22 24 28 30 30 30 31 31 27 22 20 21 21 20 20 20 20 20 20 20 20 20 21 21 20 19 19 18 16 15 16 18 19 19 20 21 20 20 19 17 15 15 15 15 15 16 16 16 17 18 19 18 17 18 18 18 17 16 14 13 13 13 15 15 14 14 14 14 15 15 15 14 13 13 14 15 16 16 16 16
Wind_Direction
289 278 270 275 274 276 289 295 305 318 313 309 347 17 347 300 101 125 132 145 143 214 295 293 282 282 281 284 289 283 280 290 301 313 333 327 287 271 252 220 218 231 240 243 249 250 244 242 246 249 249 247 244 246 249 248 244 243 245 247 249 247 241 240 240 240 239 240 243 246 247 247 245 241 242 246 249 254 263 265 261 259 260 264 265 266 265
281 271 269 273 263 263 284 283 287 307 291 285 318 341 294 286 84 109 138 184 302 304 306 300 283 280 282 287 291 288 289 297 304 311 328 347 293 257 243 234 227 223 227 237 249 262 264 259 257 259 259 255 249 247 248 248 245 242 242 243 242 242 242 242 241 241 243 245 247 248 249 251 251 248 246 248 249 252 258 261 259 257 258 265 271 270 266
272 273 285 285 246 242 268 272 275 280 264 263 273 256 185 127 110 97 46 317 278 260 276 286 279 278 280 285 287 286 291 300 310 318 323 326 296 249 238 240 236 228 226 233 241 252 264 270 269 266 264 261 260 262 262 254 245 240 240 240 239 238 239 239 237 236 238 243 247 249 251 253 254 254 254 255 257 258 257 256 255 255 259 265 271 272 267
282 280 296 304 247 242 258 254 266 278 258 241 236 199 140 118 97 73 173 207 201 194 243 287 285 280 280 284 282 281 290 302 311 320 327 324 305 276 257 244 240 236 231 230 236 242 249 259 266 268 271 274 280 287 285 273 256 248 246 244 242 241 240 238 236 235 235 237 241 247 251 255 256 258 260 262 264 265 263 262 260 257 257 257 261 266 267
291 287 300 302 267 237 238 199 206 292 265 212 194 141 147 156 119 153 172 171 179 218 267 275 272 273 277 280 279 277 286 299 308 322 335 340 333 309 289 261 236 228 228 231 237 238 240 248 258 263 269 276 283 301 310 299 280 268 262 256 252 249 247 244 241 241 242 241 241 243 248 252 254 256 260 263 265 265 264 264 263 259 254 252 255 261 263
284 282 304 314 290 199 160 162 184 245 118 127 100 73 110 239 232 194 190 194 241 255 265 271 272 278 278 278 279 279 286 297 308 323 333 340 343 336 318 280 239 223 226 233 241 243 240 240 245 251 258 267 276 294 310 305 293 287 275 266 262 258 254 249 243 239 239 240 239 236 237 242 246 250 255 259 261 262 262 261 260 258 254 253 255 259 259
276 282 303 321 318 176 191 209 220 237 221 165 88 58 30 258 214 212 216 231 266 267 270 271 268 271 276 281 279 278 290 303 312 320 321 322 324 328 327 270 233 228 231 235 244 249 241 231 231 232 235 253 266 265 262 258 284 300 286 269 262 263 263 255 245 238 236 237 236 226 222 229 238 244 251 256 257 257 259 258 257 254 252 252 252 255 255
268 274 280 286 314 314 251 234 235 226 219 224 186 121 111 141 182 214 238 273 301 299 282 273 267 259 265 274 275 282 303 312 314 310 300 302 313 319 308 248 225 230 231 230 238 245 237 224 220 214 212 231 249 240 226 209 223 262 272 256 247 248 252 246 239 234 230 233 233 223 213 221 230 237 244 251 256 257 256 257 257 254 252 252 251 250 251
259 273 279 273 296 331 149 152 137 151 160 163 170 153 126 149 204 229 253 292 303 293 282 287 283 265 259 266 269 274 283 284 287 286 273 275 305 324 311 248 231 239 233 221 222 227 219 208 207 206 206 218 232 233 232 241 247 233 212 214 220 221 214 194 180 184 194 206 210 202 206 220 232 247 252 253 259 263 258 255 256 255 253 252 250 250 251
257 313 323 297 288 287 148 150 138 136 133 134 173 177 149 172 234 251 261 293 303 288 279 282 281 272 269 269 267 265 265 260 253 258 259 250 248 24 48 38 260 248 235 224 217 214 201 178 181 199 209 216 226 231 237 247 251 243 227 208 187 177 179 172 163 164 174 184 184 184 205 228 248 262 262 256 257 264 261 255 256 258 258 257 255 254 254
248 287 313 302 291 258 173 176 179 197 165 151 198 198 161 181 229 258 270 295 301 289 282 277 272 271 271 273 270 269 270 260 235 237 240 221 210 126 85 69 28 272 241 228 209 189 170 151 156 184 209 226 235 234 234 241 246 244 235 223 215 205 187 172 173 180 184 182 174 167 171 199 241 259 263 259 257 262 265 266 271 276 277 275 270 264 261
245 258 275 283 293 294 209 184 180 196 170 169 212 190 169 191 224 250 278 297 291 284 283 273 266 267 272 276 269 265 272 262 218 214 203 190 204 191 120 86 62 45 243 221 193 159 143 143 152 176 197 215 232 232 227 228 230 227 218 215 220 222 216 209 208 207 202 200 199 198 203 216 241 259 265 264 260 260 262 268 277 285 287 285 278 270 270
242 244 249 259 272 254 189 180 185 194 182 187 217 193 183 207 227 248 292 291 273 273 274 262 260 267 272 271 254 247 260 253 211 188 186 187 192 196 190 161 84 61 66 172 173 146 129 129 139 161 175 179 191 202 205 207 207 197 182 171 178 194 198 198 196 194 194 199 201 204 212 217 225 240 254 261 260 259 262 270 281 289 295 294 284 273 270
253 247 249 258 243 188 183 186 193 205 213 214 205 193 201 236 248 270 292 270 250 258 265 259 260 262 266 262 239 228 236 234 211 187 192 197 194 190 195 201 182 68 62 68 82 98 103 106 117 156 171 167 169 175 180 181 179 173 167 158 153 161 170 176 181 184 183 183 185 189 199 203 204 210 225 241 248 251 262 274 282 290 301 309 305 291 283
265 258 256 262 218 176 189 194 190 210 236 243 230 225 233 254 266 270 262 247 241 251 262 259 252 253 258 246 220 219 227 227 219 205 199 198 193 188 189 184 167 119 80 60 47 63 86 101 137 186 185 167 156 157 159 160 164 169 171 166 157 157 163 171 181 188 187 186 191 197 204 210 217 222 231 243 251 255 260 267 273 277 282 290 305 323 329
269 271 254 236 184 169 181 191 197 221 244 247 251 250 246 258 271 266 237 224 229 244 259 262 246 243 244 231 216 222 227 225 222 223 218 201 190 186 185 174 159 149 147 132 60 54 61 92 212 205 201 173 150 148 149 150 159 170 177 182 179 174 176 182 190 196 200 205 213 219 223 229 236 242 248 255 259 262 265 270 272 273 273 271 273 281 292
273 294 298 186 172 176 193 202 204 221 239 239 234 244 260 272 274 264 248 229 220 235 250 251 238 230 230 228 225 225 220 208 214 225 220 207 198 192 186 180 171 162 164 174 187 189 218 256 248 235 227 194 151 144 150 154 158 163 167 174 185 191 194 198 202 207 213 220 226 230 234 238 244 250 256 261 266 269 271 274 275 276 278 275 271 273 277
267 275 276 179 154 172 229 233 215 222 253 239 198 214 247 268 258 249 245 230 218 234 240 236 233 227 217 218 223 222 203 192 203 214 212 206 203 198 190 186 181 172 166 171 185 196 203 216 227 228 226 213 172 150 151 153 156 162 166 172 180 190 198 202 206 211 217 224 230 235 238 242 247 254 260 265 271 274 276 279 280 282 285 287 285 285 286
253 253 245 198 176 197 230 231 232 253 258 182 200 221 244 256 249 243 238 233 236 240 236 234 234 227 215 212 216 214 195 191 198 200 197 196 200 203 202 195 188 184 179 174 179 189 195 197 200 196 192 187 169 154 151 150 152 153 156 162 170 179 188 193 196 200 206 214 222 229 235 239 245 252 259 265 271 276 280 284 288 290 292 296 300 301 303
249 249 242 224 208 219 227 230 243 255 206 193 214 239 254 258 255 247 240 244 248 235 227 230 234 230 223 213 204 192 184 188 191 188 184 186 194 203 206 202 195 191 188 183 179 182 185 187 187 183 179 174 167 159 154 151 150 148 148 153 161 166 174 180 183 185 190 198 206 212 221 232 242 249 257 265 270 275 280 282 286 292 294 298 304 307 309
249 248 240 234 229 225 229 238 248 237 207 211 228 247 258 262 262 256 251 252 247 230 222 223 226 229 227 215 196 181 179 184 188 188 183 181 182 182 180 183 182 176 174 175 173 173 173 176 178 178 175 171 168 167 164 160 158 155 156 161 166 170 177 183 188 194 200 205 211 217 220 228 239 246 256 266 270 274 281 283 284 290 294 299 306 310 313
250 250 245 249 251 240 233 238 241 224 218 230 244 254 254 254 256 257 257 253 240 226 224 217 212 219 223 214 199 189 187 187 189 190 183 174 169 167 167 171 171 167 166 164 163 169 174 178 181 183 183 184 184 182 179 178 173 166 168 177 183 187 191 196 201 208 213 218 225 231 234 238 243 246 252 262 270 275 282 288 293 297 300 302 305 308 311
252 254 244 245 245 232 223 226 231 228 228 235 246 252 251 251 247 245 249 250 234 219 219 211 207 213 214 205 200 202 200 193 191 188 181 175 172 171 173 175 177 179 180 175 174 179 190 199 208 210 207 213 221 222 218 217 211 203 203 213 219 218 215 215 217 219 220 224 227 232 238 242 247 253 259 266 275 284 289 294 300 304 305 307 308 308 308
252 252 238 233 232 226 225 230 234 234 234 236 238 240 246 254 245 225 233 245 238 219 216 213 209 208 202 194 198 205 200 192 190 187 183 182 183 184 183 183 183 182 181 188 195 202 217 237 249 254 250 244 244 244 247 251 251 250 248 246 249 249 244 242 240 232 230 232 231 232 237 239 243 259 272 279 287 294 298 302 307 309 309 310 313 314 314
244 252 253 255 247 235 229 228 229 234 239 239 235 231 241 253 242 219 223 238 237 216 207 207 205 203 197 193 196 198 195 193 191 190 189 188 190 191 190 189 187 186 188 197 204 211 230 243 248 253 256 256 256 258 262 263 264 267 267 262 262 264 261 258 257 253 248 248 246 248 253 252 249 254 264 274 283 287 291 300 307 309 310 311 313 315 315
241 248 253 257 254 242 229 224 227 236 240 236 229 230 238 242 232 220 223 231 232 219 207 205 206 205 200 194 192 193 196 197 197 194 193 193 195 200 203 201 196 195 198 206 210 213 229 249 254 252 254 255 251 252 262 267 269 272 274 274 274 271 267 266 271 273 272 273 277 284 288 292 294 294 292 293 294 294 295 300 304 305 304 305 308 310 310
237 239 245 250 252 247 236 230 235 243 242 231 223 227 234 234 228 223 222 222 220 215 209 205 206 208 203 195 192 193 194 197 203 203 200 199 202 207 211 209 206 208 213 220 224 220 225 258 274 279 279 273 261 254 263 269 270 273 277 279 279 276 273 274 276 275 276 279 285 290 296 301 304 306 306 304 303 303 303 302 300 297 294 293 296 301 303
230 236 245 248 249 247 238 233 238 241 235 228 225 225 230 232 224 217 217 218 215 210 207 203 201 204 205 199 196 196 197 200 205 206 207 211 210 207 208 210 212 217 222 226 235 239 238 256 274 283 288 289 291 297 290 279 275 276 277 277 277 277 276 272 266 268 275 283 288 291 293 297 299 301 303 304 304 304 302 298 296 294 292 293 296 299 302
234 244 253 255 252 243 232 230 235 233 224 220 224 227 228 225 217 209 210 216 216 207 202 201 200 202 203 199 196 202 208 209 208 207 212 216 208 199 206 214 216 224 232 238 247 259 267 271 276 283 287 291 295 295 286 280 280 279 278 280 283 284 283 280 276 274 277 281 284 288 290 292 292 291 293 296 297 298 298 297 297 297 296 296 297 299 300
245 253 260 259 252 241 231 230 236 232 218 212 220 230 229 221 214 210 208 213 217 211 201 199 202 204 204 200 197 203 209 210 207 207 211 212 204 205 218 225 223 228 238 245 254 268 278 282 287 292 297 297 289 275 268 272 275 274 274 278 280 282 284 286 286 287 285 283 282 283 283 283 284 285 286 288 290 292 294 295 296 298 300 301 301 301 302
251 253 253 249 244 239 235 234 234 227 216 210 217 229 229 218 214 219 219 218 220 217 206 201 202 205 207 205 201 203 205 206 207 208 210 213 216 223 234 237 236 238 246 254 262 270 276 282 289 295 297 291 280 272 272 275 275 274 275 277 277 278 280 281 282 283 282 282 281 280 279 278 278 280 283 286 288 289 290 291 292 294 298 301 302 303 305
247 245 242 240 239 237 236 235 230 219 212 207 210 221 227 219 215 225 229 222 218 215 209 205 205 206 207 207 206 207 207 207 208 212 216 219 225 234 241 245 249 254 259 263 268 272 277 283 288 288 284 279 277 279 282 283 280 278 278 277 277 276 274 273 273 272 273 274 275 276 276 275 275 276 278 281 282 283 285 287 289 290 292 294 296 298 301
242 238 232 230 231 230 231 233 231 223 217 210 208 217 227 229 226 230 232 225 217 211 207 208 212 212 210 209 211 212 212 211 212 215 219 221 225 233 241 248 257 265 269 273 277 281 287 291 290 284 279 278 277 280 282 282 279 277 275 274 274 275 273 271 268 266 266 268 269 270 271 271 274 278 281 283 282 281 281 281 281 282 284 285 287 290 294
247 238 227 226 234 235 236 239 238 231 223 215 209 213 222 227 226 228 231 229 222 213 207 208 213 215 214 214 216 218 219 217 216 217 221 221 224 233 242 251 260 269 276 282 287 292 296 297 293 290 288 285 282 282 282 280 278 278 277 275 274 274 275 274 271 269 269 270 270 271 272 273 276 279 281 281 281 279 277 276 275 276 278 280 280 282 286
247 231 223 230 246 247 244 244 241 233 225 218 212 210 213 219 221 222 226 230 227 218 210 208 212 217 220 220 221 224 225 224 223 223 224 224 227 235 244 251 259 268 276 282 287 293 296 293 291 290 288 286 285 285 282 279 278 278 279 279 278 277 276 276 275 275 276 276 277 280 281 281 282 282 280 279 280 279 278 277 277 276 277 279 279 280 281
245 232 229 239 253 255 250 245 238 231 226 222 215 209 207 212 215 216 221 229 229 220 211 210 214 219 222 223 225 228 230 230 232 233 232 231 233 239 247 254 261 267 273 277 281 287 289 288 287 285 283 285 288 289 288 286 285 283 282 282 282 281 279 277 277 278 280 282 285 288 288 287 287 287 286 284 282 281 281 282 282 282 282 282 282 282 283
244 236 236 243 253 258 255 246 234 228 226 225 222 219 216 215 210 206 212 226 232 224 215 214 216 218 220 222 226 230 231 233 236 237 236 236 238 243 249 256 261 262 262 263 268 276 279 279 278 278 282 288 291 292 292 290 287 285 284 283 281 280 278 277 276 277 277 279 280 281 282 283 284 284 284 282 282 281 282 282 284 285 283 278 277 279 282
246 243 244 244 245 250 251 242 231 226 224 224 226 229 230 227 219 208 210 225 235 231 221 219 222 222 221 222 226 230 232 232 232 232 232 234 236 239 243 248 251 252 253 260 271 273 270 269 272 278 286 292 293 293 292 286 281 281 282 281 280 279 278 276 275 274 274 276 278 278 281 283 285 285 286 287 288 288 286 286 288 288 284 277 276 280 284
248 249 247 240 235 238 241 236 229 227 226 227 229 229 229 229 225 216 214 226 235 233 225 225 228 228 226 225 229 232 232 231 229 229 229 230 232 234 236 239 246 252 258 267 272 268 266 271 282 291 296 298 296 293 289 282 280 281 283 281 279 278 275 274 275 276 277 279 281 283 284 286 288 289 289 290 290 288 287 288 292 292 288 282 280 281 283
251 249 242 235 230 231 232 230 227 225 225 228 232 231 226 223 221 217 217 225 233 232 227 227 231 231 229 230 233 233 232 232 232 229 226 227 229 231 231 235 245 255 263 269 271 271 276 287 298 303 306 305 301 294 289 286 285 286 284 281 278 277 277 278 280 281 282 284 286 286 287 287 289 289 287 286 286 287 289 294 298 297 293 290 288 285 284
244 240 233 230 230 230 229 228 228 226 226 228 230 228 223 220 220 219 220 223 228 230 228 227 229 230 229 231 233 232 229 229 227 222 221 228 232 233 233 238 249 259 266 271 274 280 289 300 306 309 310 307 301 295 292 291 289 285 281 280 279 278 278 278 278 279 282 286 287 286 286 288 289 286 283 285 290 294 295 297 298 296 292 290 287 284 282
241 236 232 231 233 233 232 231 232 232 231 229 225 221 219 219 221 222 222 222 225 228 227 225 227 230 229 229 233 234 231 227 223 222 227 234 237 237 239 245 256 265 270 274 279 286 295 302 306 306 303 299 296 293 290 288 286 282 279 277 276 274 273 274 277 281 285 286 285 284 286 288 287 282 281 286 294 299 299 297 295 292 289 287 284 282 282
243 238 235 234 234 234 234 234 234 234 233 229 224 221 222 223 223 223 223 223 225 228 226 223 225 230 231 231 234 236 236 232 229 231 234 236 238 241 245 252 262 269 274 278 281 287 295 300 300 297 296 295 293 290 286 283 281 278 275 273 271 270 270 274 278 282 284 283 283 284 285 284 282 282 286 291 296 297 295 292 291 290 288 286 285 284 285
244 238 235 235 234 232 232 232 232 233 233 231 226 224 225 226 225 224 222 222 224 227 225 222 223 228 233 234 236 238 240 239 240 242 243 242 243 248 256 265 273 278 281 284 288 294 298 298 295 294 295 295 292 287 284 282 279 275 274 274 273 273 274 277 280 281 280 279 280 282 282 281 283 288 293 296 298 298 295 291 291 291 290 288 287 287 287
241 238 236 234 232 231 230 230 231 232 233 231 228 226 227 228 226 221 220 222 224 224 222 222 224 228 231 233 235 238 240 241 241 243 246 249 252 257 263 271 279 285 287 291 296 299 297 294 292 291 291 290 286 283 282 280 278 276 275 276 278 280 281 283 286 287 285 283 281 280 279 281 285 290 293 295 298 300 298 295 294 293 290 289 289 289 287
241 241 239 236 235 234 232 230 229 229 229 231 233 232 229 226 222 216 215 220 223 223 221 223 226 228 230 231 233 235 237 237 238 241 246 251 255 258 262 270 279 285 288 292 296 296 293 291 290 289 288 285 282 280 280 279 278 278 278 280 282 285 286 288 290 291 289 285 282 281 281 282 286 290 293 296 298 299 299 299 300 299 295 292 292 292 292
242 242 240 239 239 238 233 228 225 224 224 228 230 226 218 214 213 212 213 217 221 221 222 224 226 227 229 230 232 234 236 235 236 240 244 249 254 258 264 271 277 281 286 292 295 294 291 289 288 286 284 282 279 278 279 279 277 278 279 282 282 281 283 286 289 290 289 287 286 286 287 288 290 292 294 294 294 294 295 297 300 301 300 299 299 299 299
243 241 240 240 240 236 230 224 222 223 223 223 219 211 206 207 208 209 210 214 217 219 220 223 225 228 230 231 231 232 233 234 235 238 242 249 257 265 271 275 280 285 290 295 295 293 290 289 286 282 280 278 277 277 278 278 277 277 279 279 278 278 280 284 285 283 281 282 284 287 288 289 290 294 297 295 293 294 296 297 298 299 299 300 302 303 304
243 240 237 234 232 230 226 222 222 224 224 220 211 202 199 201 203 203 204 209 213 216 219 223 225 228 230 231 229 226 228 232 236 239 242 249 259 268 273 278 284 290 294 296 295 293 291 289 285 280 277 276 277 278 278 276 276 278 279 279 279 280 281 281 280 280 279 280 284 288 290 291 293 296 297 297 298 301 302 301 299 298 298 300 301 303 304
244 240 234 228 225 224 222 221 224 226 226 223 216 206 197 194 195 199 203 207 211 215 219 223 226 227 228 228 226 226 229 235 240 243 245 248 254 264 274 282 288 293 294 293 292 291 289 287 283 278 276 277 278 278 278 277 277 278 281 283 285 286 287 286 285 286 287 287 287 287 289 290 293 295 296 298 301 302 301 300 300 301 301 301 300 299 300
240 233 226 223 223 224 223 221 222 222 221 222 222 216 205 196 196 202 206 208 212 217 220 222 223 224 224 224 224 228 234 239 243 248 251 252 255 264 274 283 289 294 295 293 290 288 286 283 279 275 274 276 276 277 277 278 279 280 282 284 285 286 288 289 290 291 292 290 288 286 285 285 288 291 296 301 304 304 303 303 304 304 305 305 305 305 306
236 231 226 222 221 222 220 216 215 215 216 219 221 217 206 197 196 204 209 211 215 219 221 221 221 221 223 225 227 231 238 243 247 252 257 260 265 272 278 285 292 296 297 294 290 285 282 279 275 272 272 274 276 277 277 279 281 283 285 286 286 286 287 289 291 293 293 290 289 289 290 290 292 294 299 305 310 313 315 317 316 313 312 313 314 314 312
Height
3149 3149 3149 3149 3149 3149 3149 3149 3149 3149 3150 3151 3151 3152 3152 3152 3153 3156 3159 3159 3160 3161 3162 3162 3162 3162 3162 3162 3163 3162 3162 3161 3162 3162 3162 3161 3161 3161 3161 3161 3162 3162 3162 3162 3162 3163 3164 3165 3165 3166 3168 3171 3173 3175 3175 3176 3178 3179 3179 3180 3182 3184 3185 3186 3188 3189 3190 3191 3192 3193 3194 3195 3197 3199 3200 3201 3201 3201 3202 3202 3202 3203 3205 3207 3207 3207 3207
3148 3148 3147 3146 3147 3148 3148 3149 3150 3150 3150 3151 3152 3152 3151 3150 3152 3155 3157 3158 3159 3160 3161 3161 3161 3160 3160 3160 3161 3161 3160 3160 3159 3160 3160 3160 3159 3160 3160 3161 3161 3161 3162 3162 3161 3162 3163 3164 3164 3165 3166 3168 3170 3172 3173 3173 3175 3176 3177 3178 3179 3181 3182 3183 3185 3186 3186 3188 3189 3190 3192 3193 3194 3196 3197 3198 3199 3199 3200 3200 3201 3201 3202 3202 3203 3204 3204
3147 3147 3146 3145 3145 3147 3148 3148 3149 3149 3150 3150 3151 3152 3150 3149 3152 3155 3156 3157 3158 3159 3160 3160 3159 3159 3159 3159 3159 3159 3159 3158 3158 3158 3158 3159 3158 3158 3159 3160 3160 3160 3161 3161 3162 3161 3162 3163 3164 3165 3165 3166 3167 3169 3171 3171 3172 3173 3174 3175 3176 3178 3179 3181 3181 3181 3182 3184 3185 3187 3189 3190 3191 3192 3194 3195 3195 3196 3197 3198 3199 3200 3200 3199 3199 3200 3201
3145 3146 3146 3145 3146 3146 3147 3147 3148 3148 3148 3149 3150 3151 3150 3150 3152 3154 3155 3156 3157 3158 3159 3159 3158 3158 3158 3158 3158 3158 3158 3157 3157 3157 3157 3157 3157 3157 3157 3158 3160 3160 3160 3161 3161 3161 3161 3162 3163 3164 3164 3165 3166 3167 3168 3168 3169 3169 3170 3171 3173 3174 3175 3176 3176 3176 3177 3180 3181 3183 3185 3186 3188 3189 3190 3191 3192 3193 3193 3194 3195 3196 3197 3197 3196 3196 3197
3144 3144 3144 3144 3144 3145 3145 3145 3146 3147 3147 3148 3148 3149 3149 3150 3151 3152 3154 3155 3156 3156 3157 3157 3157 3157 3157 3157 3157 3157 3157 3156 3156 3156 3156 3156 3156 3156 3156 3157 3158 3159 3160 3160 3160 3160 3160 3161 3162 3163 3163 3164 3165 3165 3165 3166 3166 3166 3166 3167 3169 3170 3171 3170 3170 3171 3173 3176 3178 3180 3182 3183 3184 3186 3187 3188 3188 3189 3190 3190 3191 3192 3193 3193 3193 3193 3193
3143 3143 3143 3142 3141 3142 3143 3144 3145 3146 3146 3147 3148 3148 3148 3149 3150 3151 3153 3154 3155 3155 3155 3155 3156 3156 3156 3156 3156 3156 3156 3156 3155 3155 3155 3155 3156 3156 3155 3155 3156 3157 3158 3158 3159 3159 3160 3160 3161 3162 3163 3164 3164 3164 3164 3164 3165 3165 3165 3166 3167 3167 3167 3166 3166 3167 3170 3172 3174 3176 3178 3180 3181 3182 3184 3184 3185 3185 3186 3186 3187 3187 3188 3189 3189 3190 3188
3143 3143 3144 3143 3140 3140 3142 3143 3144 3145 3146 3147 3148 3148 3148 3148 3148 3150 3152 3154 3154 3155 3155 3154 3154 3155 3155 3155 3155 3155 3155 3155 3155 3155 3155 3155 3155 3155 3155 3155 3154 3155 3156 3156 3157 3158 3159 3159 3160 3161 3162 3163 3163 3164 3165 3165 3165 3165 3165 3166 3166 3166 3165 3164 3164 3165 3167 3169 3170 3172 3174 3176 3178 3179 3180 3181 3181 3181 3181 3181 3182 3182 3183 3183 3184 3184 3183
3143 3143 3145 3145 3142 3141 3142 3142 3142 3143 3145 3145 3147 3148 3149 3148 3147 3148 3151 3152 3154 3154 3154 3154 3153 3153 3154 3154 3154 3154 3154 3154 3154 3154 3154 3154 3154 3153 3153 3153 3153 3153 3154 3155 3156 3157 3157 3158 3159 3159 3160 3161 3162 3164 3165 3165 3165 3165 3165 3166 3165 3165 3164 3164 3164 3165 3165 3167 3169 3171 3173 3174 3176 3177 3177 3177 3177 3177 3177 3177 3177 3178 3178 3178 3179 3179 3178
3143 3142 3143 3143 3141 3141 3142 3142 3142 3143 3144 3144 3145 3147 3149 3148 3148 3148 3150 3151 3152 3153 3153 3153 3152 3152 3152 3153 3153 3152 3152 3153 3153 3153 3153 3153 3153 3152 3152 3152 3152 3152 3153 3153 3154 3155 3156 3156 3157 3158 3158 3160 3161 3163 3164 3164 3164 3165 3165 3165 3165 3165 3165 3165 3165 3166 3166 3167 3169 3170 3171 3172 3173 3174 3175 3175 3174 3174 3174 3174 3173 3173 3173 3174 3174 3174 3175
3142 3142 3142 3142 3141 3141 3142 3142 3142 3143 3144 3144 3144 3146 3148 3148 3147 3148 3150 3150 3151 3151 3151 3151 3151 3151 3151 3151 3151 3151 3151 3151 3152 3152 3152 3152 3152 3152 3151 3151 3151 3151 3151 3152 3152 3153 3154 3155 3155 3156 3157 3158 3160 3161 3162 3163 3163 3164 3165 3165 3166 3166 3166 3166 3166 3167 3167 3168 3169 3169 3169 3170 3171 3172 3172 3173 3173 3172 3172 3171 3170 3170 3170 3170 3170 3171 3171
3140 3141 3142 3143 3141 3140 3141 3142 3142 3142 3143 3143 3143 3145 3146 3147 3146 3147 3149 3149 3149 3149 3150 3150 3150 3149 3149 3149 3150 3150 3150 3150 3151 3151 3151 3151 3152 3151 3150 3151 3151 3151 3151 3151 3151 3153 3154 3154 3154 3155 3156 3157 3159 3160 3160 3161 3161 3162 3163 3164 3165 3166 3167 3168 3168 3167 3167 3168 3168 3169 3169 3169 3170 3170 3171 3171 3171 3171 3170 3169 3169 3168 3167 3167 3168 3168 3168
3139 3140 3142 3142 3141 3140 3140 3141 3141 3141 3141 3142 3143 3144 3145 3145 3145 3146 3148 3148 3148 3148 3148 3149 3148 3148 3148 3148 3148 3148 3148 3149 3150 3150 3150 3150 3151 3151 3151 3151 3151 3151 3151 3151 3151 3152 3153 3153 3154 3155 3156 3157 3158 3159 3159 3160 3160 3161 3162 3163 3163 3164 3166 3168 3167 3166 3166 3166 3167 3168 3168 3169 3169 3169 3169 3170 3170 3169 3168 3168 3167 3167 3166 3166 3165 3165 3166
3137 3139 3139 3140 3140 3140 3140 3140 3140 3140 3141 3141 3142 3142 3143 3144 3144 3146 3147 3147 3147 3147 3147 3147 3147 3147 3147 3147 3147 3148 3148 3148 3149 3150 3150 3150 3150 3151 3151 3151 3151 3151 3151 3151 3152 3152 3151 3152 3154 3155 3156 3157 3158 3158 3158 3159 3159 3160 3161 3162 3162 3163 3164 3165 3164 3164 3164 3165 3165 3166 3166 3167 3167 3168 3168 3168 3168 3168 3167 3167 3166 3166 3165 3164 3163 3163 3163
3136 3137 3138 3138 3138 3138 3138 3139 3139 3139 3139 3140 3139 3140 3142 3143 3144 3145 3146 3146 3146 3146 3146 3146 3146 3146 3146 3146 3146 3147 3147 3148 3148 3149 3149 3149 3149 3150 3150 3150 3151 3151 3151 3151 3151 3151 3150 3151 3154 3155 3156 3157 3157 3158 3158 3158 3158 3159 3160 3161 3161 3162 3162 3162 3163 3163 3164 3164 3164 3165 3165 3165 3166 3166 3166 3167 3167 3167 3166 3166 3165 3165 3165 3164 3163 3162 3161
3136 3136 3136 3136 3136 3136 3137 3137 3138 3138 3138 3139 3139 3139 3140 3141 3143 3144 3145 3145 3145 3145 3145 3145 3145 3145 3145 3145 3145 3146 3146 3147 3148 3148 3148 3148 3149 3149 3150 3150 3150 3151 3151 3151 3151 3151 3151 3152 3154 3155 3156 3157 3157 3157 3157 3157 3157 3158 3158 3159 3160 3160 3161 3161 3162 3163 3163 3163 3164 3164 3164 3164 3164 3165 3165 3165 3165 3166 3165 3165 3164 3164 3164 3163 3162 3161 3160
3135 3135 3135 3134 3135 3135 3136 3136 3137 3138 3138 3138 3138 3138 3138 3140 3142 3143 3143 3144 3144 3144 3144 3144 3144 3144 3144 3145 3145 3145 3146 3146 3147 3147 3148 3148 3148 3149 3149 3149 3150 3150 3151 3152 3153 3153 3153 3154 3155 3155 3156 3156 3156 3157 3157 3157 3157 3157 3158 3158 3159 3159 3160 3161 3161 3162 3163 3163 3163 3163 3163 3163 3163 3163 3163 3164 3164 3164 3164 3163 3163 3162 3162 3162 3161 3160 3160
3135 3135 3135 3134 3134 3134 3135 3135 3137 3137 3138 3138 3138 3137 3136 3138 3140 3141 3142 3143 3143 3143 3143 3143 3143 3143 3144 3144 3144 3145 3145 3146 3147 3147 3147 3148 3148 3148 3149 3149 3149 3150 3150 3152 3153 3154 3155 3155 3155 3155 3155 3155 3156 3157 3157 3158 3158 3158 3158 3159 3159 3159 3159 3160 3161 3162 3162 3162 3162 3162 3162 3162 3162 3162 3162 3162 3162 3162 3161 3161 3161 3161 3160 3160 3159 3159 3159
3133 3133 3134 3134 3134 3134 3134 3135 3136 3137 3137 3138 3138 3136 3136 3137 3138 3140 3141 3141 3142 3142 3142 3142 3142 3143 3143 3144 3143 3144 3145 3146 3146 3146 3147 3147 3148 3148 3149 3149 3149 3149 3150 3151 3152 3153 3154 3155 3155 3155 3155 3156 3156 3157 3158 3158 3158 3158 3158 3159 3159 3159 3159 3159 3160 3160 3161 3161 3161 3161 3161 3161 3160 3160 3160 3160 3160 3160 3160 3160 3159 3159 3159 3158 3158 3158 3157
3132 3132 3133 3134 3134 3134 3133 3133 3135 3136 3136 3137 3137 3136 3135 3136 3138 3139 3139 3140 3141 3141 3141 3141 3141 3142 3142 3143 3142 3143 3144 3144 3145 3145 3146 3147 3147 3148 3149 3149 3149 3150 3150 3150 3151 3152 3153 3154 3154 3155 3155 3156 3157 3157 3158 3158 3158 3158 3158 3158 3159 3159 3159 3159 3159 3159 3160 3160 3160 3160 3160 3160 3159 3159 3159 3159 3159 3159 3159 3158 3158 3158 3157 3157 3157 3156 3156
3130 3131 3131 3132 3134 3134 3132 3133 3135 3136 3136 3136 3135 3135 3135 3135 3137 3138 3138 3139 3140 3140 3140 3140 3140 3141 3141 3141 3142 3142 3143 3143 3144 3145 3145 3146 3147 3148 3148 3149 3149 3150 3150 3151 3151 3152 3153 3154 3154 3155 3156 3156 3157 3157 3158 3158 3158 3158 3158 3158 3158 3158 3158 3158 3158 3159 3159 3159 3159 3159 3159 3159 3159 3159 3159 3159 3158 3158 3158 3157 3157 3157 3156 3156 3155 3155 3155
3129 3129 3130 3131 3132 3132 3131 3132 3134 3134 3135 3134 3134 3134 3134 3134 3135 3136 3137 3138 3138 3139 3139 3140 3140 3140 3140 3140 3141 3142 3142 3143 3144 3144 3145 3146 3146 3147 3148 3148 3149 3150 3150 3151 3151 3152 3152 3153 3154 3155 3156 3156 3157 3157 3157 3157 3157 3157 3157 3157 3157 3157 3157 3157 3158 3158 3159 3158 3158 3158 3158 3158 3158 3158 3158 3158 3158 3157 3157 3156 3156 3156 3155 3155 3155 3154 3154
3127 3127 3128 3129 3130 3130 3129 3130 3131 3133 3133 3133 3133 3134 3134 3134 3134 3134 3135 3136 3137 3137 3138 3138 3139 3139 3139 3139 3140 3141 3142 3142 3143 3144 3144 3145 3146 3147 3147 3148 3149 3149 3150 3150 3151 3152 3152 3153 3154 3155 3155 3156 3156 3156 3156 3156 3156 3156 3156 3156 3157 3157 3157 3157 3157 3158 3158 3158 3158 3157 3157 3157 3157 3157 3157 3157 3157 3156 3156 3156 3155 3155 3155 3154 3154 3154 3153
3125 3125 3126 3127 3128 3129 3129 3128 3129 3130 3131 3132 3132 3133 3133 3133 3134 3133 3133 3134 3136 3136 3137 3137 3138 3138 3139 3139 3139 3140 3141 3142 3143 3144 3144 3145 3146 3146 3147 3148 3148 3149 3150 3150 3151 3151 3152 3153 3153 3154 3155 3155 3155 3155 3155 3155 3155 3155 3155 3155 3156 3156 3156 3157 3157 3157 3157 3157 3157 3157 3157 3157 3157 3156 3156 3156 3156 3155 3155 3154 3154 3154 3153 3153 3153 3153 3152
3124 3124 3125 3126 3126 3127 3128 3128 3128 3129 3129 3130 3131 3131 3131 3132 3133 3133 3132 3132 3134 3136 3136 3136 3137 3137 3138 3139 3139 3140 3140 3141 3142 3143 3144 3145 3146 3146 3147 3147 3148 3149 3149 3150 3151 3151 3152 3152 3153 3153 3154 3154 3154 3154 3154 3154 3154 3154 3154 3154 3154 3155 3155 3156 3156 3156 3156 3156 3156 3156 3156 3156 3156 3156 3155 3155 3155 3154 3154 3153 3153 3152 3152 3152 3151 3151 3150
3122 3122 3123 3124 3125 3125 3125 3126 3127 3128 3128 3129 3129 3129 3130 3131 3132 3132 3131 3131 3133 3134 3135 3135 3136 3136 3137 3138 3138 3139 3139 3140 3141 3142 3143 3144 3145 3146 3146 3147 3148 3149 3149 3150 3150 3151 3151 3151 3152 3152 3153 3153 3153 3153 3153 3153 3153 3153 3153 3153 3153 3154 3154 3154 3154 3155 3155 3154 3154 3154 3154 3154 3155 3155 3154 3154 3154 3153 3153 3152 3152 3151 3151 3150 3150 3149 3149
3120 3120 3121 3122 3122 3123 3123 3124 3125 3126 3127 3128 3128 3127 3128 3129 3130 3131 3131 3131 3132 3133 3134 3134 3134 3135 3136 3137 3137 3138 3138 3139 3140 3141 3142 3143 3144 3145 3146 3147 3148 3148 3149 3149 3149 3150 3150 3150 3151 3151 3151 3151 3152 3152 3152 3152 3152 3152 3152 3152 3152 3152 3152 3153 3153 3153 3153 3153 3153 3153 3153 3153 3153 3153 3153 3152 3152 3152 3151 3151 3151 3150 3150 3149 3149 3148 3147
3118 3118 3119 3120 3120 3121 3122 3123 3124 3125 3126 3126 3126 3126 3127 3128 3129 3129 3130 3130 3131 3132 3132 3133 3133 3134 3134 3135 3136 3137 3138 3138 3139 3140 3141 3142 3143 3144 3145 3146 3147 3147 3148 3148 3148 3149 3149 3149 3149 3150 3150 3150 3150 3151 3151 3151 3151 3151 3151 3150 3150 3151 3151 3151 3152 3151 3151 3151 3151 3151 3151 3151 3151 3151 3151 3150 3150 3150 3149 3149 3149 3149 3148 3148 3147 3147 3146
3116 3116 3117 3118 3118 3118 3119 3121 3122 3123 3124 3124 3124 3125 3126 3127 3128 3128 3129 3129 3130 3131 3131 3132 3133 3133 3133 3134 3135 3135 3136 3137 3138 3139 3140 3141 3142 3143 3144 3145 3146 3146 3147 3147 3147 3148 3149 3149 3149 3148 3149 3149 3149 3150 3150 3150 3150 3150 3149 3149 3149 3149 3149 3150 3150 3150 3150 3150 3150 3150 3150 3150 3149 3149 3149 3148 3148 3147 3147 3147 3146 3147 3146 3146 3146 3145 3145
3114 3114 3115 3116 3117 3117 3117 3118 3119 3121 3121 3122 3123 3124 3125 3126 3127 3127 3128 3128 3128 3129 3130 3130 3131 3132 3133 3133 3134 3134 3135 3136 3137 3138 3138 3139 3141 3142 3143 3143 3144 3145 3145 3146 3146 3147 3148 3148 3147 3147 3148 3148 3148 3148 3148 3148 3148 3149 3148 3148 3148 3147 3147 3148 3148 3148 3148 3148 3148 3148 3148 3148 3148 3147 3147 3146 3146 3145 3144 3144 3143 3143 3143 3143 3143 3144 3143
3111 3112 3112 3113 3114 3114 3115 3116 3118 3119 3120 3120 3121 3122 3123 3125 3125 3126 3127 3127 3127 3128 3129 3129 3130 3130 3131 3132 3133 3134 3134 3135 3136 3136 3137 3138 3140 3141 3141 3142 3143 3144 3144 3145 3146 3146 3146 3146 3146 3146 3147 3147 3147 3147 3147 3147 3147 3147 3147 3147 3146 3146 3146 3146 3146 3147 3146 3146 3147 3147 3147 3146 3146 3145 3145 3145 3144 3143 3142 3141 3140 3140 3139 3139 3139 3140 3140
3109 3110 3111 3111 3111 3112 3113 3114 3115 3116 3117 3119 3120 3121 3122 3123 3124 3125 3125 3126 3126 3127 3128 3129 3129 3129 3130 3131 3132 3132 3133 3134 3135 3135 3136 3138 3139 3139 3140 3140 3141 3142 3143 3144 3144 3145 3145 3145 3145 3145 3145 3145 3145 3145 3145 3146 3146 3146 3145 3145 3145 3145 3145 3145 3145 3145 3145 3145 3145 3145 3145 3144 3144 3143 3143 3143 3142 3141 3140 3140 3139 3137 3137 3136 3136 3136 3136
3106 3107 3108 3109 3109 3109 3110 3111 3112 3114 3115 3117 3118 3119 3120 3121 3123 3123 3124 3124 3125 3126 3127 3127 3128 3129 3129 3130 3130 3131 3132 3133 3134 3134 3135 3136 3137 3138 3138 3139 3139 3140 3141 3142 3143 3143 3143 3144 3144 3144 3144 3144 3144 3144 3144 3144 3144 3144 3144 3144 3144 3144 3144 3144 3144 3143 3143 3143 3143 3143 3143 3142 3142 3141 3141 3140 3140 3139 3139 3138 3137 3136 3135 3134 3133 3133 3133
3103 3104 3105 3106 3107 3107 3107 3108 3110 3112 3113 3114 3116 3118 3119 3120 3121 3122 3122 3123 3123 3124 3125 3126 3127 3127 3128 3129 3129 3129 3130 3131 3132 3133 3134 3135 3136 3136 3136 3137 3138 3138 3139 3140 3140 3141 3141 3141 3142 3142 3142 3142 3142 3142 3142 3142 3142 3142 3142 3142 3142 3142 3141 3142 3142 3141 3141 3141 3141 3141 3140 3140 3139 3139 3138 3138 3137 3137 3137 3136 3135 3134 3133 3132 3131 3131 3131
3100 3101 3103 3104 3105 3105 3106 3107 3109 3110 3111 3112 3114 3116 3117 3118 3119 3120 3121 3121 3122 3123 3124 3124 3125 3126 3127 3127 3128 3128 3129 3130 3131 3132 3133 3134 3135 3135 3135 3136 3136 3137 3137 3137 3138 3139 3139 3139 3139 3139 3139 3139 3139 3140 3140 3140 3140 3140 3140 3140 3140 3140 3139 3139 3139 3139 3138 3138 3138 3138 3137 3137 3136 3136 3136 3135 3135 3134 3134 3133 3133 3132 3131 3130 3129 3129 3129
3097 3098 3100 3101 3102 3103 3104 3105 3107 3108 3109 3110 3112 3113 3115 3116 3118 3118 3119 3119 3120 3121 3122 3123 3123 3124 3125 3125 3126 3127 3128 3129 3129 3130 3131 3132 3133 3133 3133 3134 3135 3136 3136 3136 3136 3137 3137 3137 3137 3137 3137 3137 3137 3138 3138 3138 3137 3137 3137 3137 3137 3137 3137 3137 3136 3136 3135 3135 3135 3135 3134 3134 3134 3133 3133 3132 3132 3131 3131 3130 3130 3129 3128 3127 3126 3126 3126
3093 3094 3096 3098 3098 3099 3101 3102 3104 3105 3106 3107 3109 3110 3112 3113 3114 3115 3117 3118 3118 3119 3120 3121 3121 3122 3123 3124 3124 3125 3126 3127 3127 3128 3129 3130 3131 3131 3132 3133 3134 3134 3134 3135 3135 3136 3136 3136 3135 3135 3135 3135 3136 3136 3136 3135 3135 3135 3135 3134 3134 3134 3134 3134 3134 3133 3132 3132 3132 3132 3131 3131 3131 3130 3130 3129 3129 3128 3127 3127 3126 3126 3126 3125 3123 3122 3123
3090 3092 3093 3094 3094 3095 3097 3099 3101 3103 3104 3105 3106 3107 3108 3109 3110 3111 3114 3116 3117 3118 3119 3119 3120 3121 3122 3122 3123 3123 3124 3125 3126 3126 3127 3128 3129 3129 3130 3131 3132 3132 3133 3133 3134 3134 3134 3134 3134 3134 3133 3133 3133 3133 3133 3133 3132 3132 3132 3132 3132 3132 3131 3131 3131 3131 3130 3130 3130 3129 3128 3128 3128 3127 3126 3126 3125 3125 3124 3124 3123 3123 3123 3122 3120 3119 3119
3086 3088 3089 3090 3091 3092 3093 3095 3098 3100 3101 3102 3103 3105 3106 3109 3110 3110 3112 3114 3115 3116 3117 3118 3118 3119 3120 3120 3120 3121 3122 3123 3124 3124 3125 3126 3127 3128 3128 3129 3130 3130 3131 3132 3132 3132 3132 3132 3132 3131 3131 3131 3131 3131 3131 3130 3130 3129 3129 3129 3129 3129 3128 3128 3128 3128 3127 3127 3127 3126 3126 3125 3125 3124 3124 3123 3123 3122 3121 3120 3120 3120 3120 3119 3118 3116 3116
3082 3083 3085 3086 3088 3089 3090 3092 3094 3095 3097 3099 3101 3102 3104 3107 3109 3110 3110 3112 3113 3114 3115 3116 3116 3116 3117 3118 3118 3119 3120 3121 3122 3122 3123 3125 3126 3126 3127 3127 3128 3128 3129 3130 3130 3130 3130 3130 3129 3129 3129 3129 3128 3128 3128 3127 3126 3126 3126 3126 3126 3125 3125 3125 3125 3125 3124 3124 3124 3123 3122 3122 3122 3121 3121 3120 3120 3119 3118 3117 3117 3116 3116 3116 3115 3115 3114
3078 3079 3081 3083 3084 3086 3087 3088 3089 3091 3093 3095 3097 3100 3102 3103 3105 3106 3107 3108 3110 3111 3113 3114 3114 3114 3115 3116 3116 3117 3118 3119 3119 3121 3122 3123 3124 3124 3125 3126 3126 3127 3127 3128 3128 3127 3127 3127 3127 3127 3126 3126 3125 3125 3125 3124 3123 3123 3123 3123 3122 3122 3122 3122 3122 3121 3121 3121 3120 3120 3119 3119 3118 3118 3117 3117 3117 3116 3115 3115 3114 3114 3113 3113 3113 3112 3112
3075 3076 3078 3079 3081 3083 3084 3085 3086 3089 3091 3092 3094 3097 3099 3100 3101 3103 3104 3105 3107 3109 3110 3111 3112 3113 3114 3114 3115 3116 3117 3117 3118 3120 3120 3121 3122 3123 3123 3124 3124 3125 3125 3125 3125 3125 3125 3124 3124 3124 3124 3123 3122 3122 3121 3121 3121 3120 3120 3120 3120 3120 3119 3119 3119 3118 3118 3118 3117 3117 3116 3116 3116 3115 3114 3113 3113 3113 3112 3112 3111 3111 3110 3110 3110 3109 3109
3072 3073 3074 3076 3077 3079 3082 3083 3084 3086 3088 3090 3092 3094 3095 3097 3099 3100 3101 3103 3104 3106 3108 3109 3110 3111 3112 3113 3114 3114 3115 3116 3117 3118 3119 3119 3120 3121 3122 3122 3122 3123 3123 3123 3122 3122 3122 3121 3121 3121 3121 3121 3120 3119 3119 3119 3118 3118 3117 3117 3118 3117 3117 3116 3116 3116 3116 3115 3114 3114 3114 3113 3113 3112 3111 3111 3111 3111 3110 3109 3108 3108 3107 3106 3106 3106 3106
3069 3070 3071 3073 3074 3076 3078 3080 3081 3082 3085 3087 3090 3091 3092 3093 3095 3097 3098 3100 3102 3103 3105 3107 3108 3108 3109 3110 3111 3112 3113 3114 3116 3116 3117 3117 3118 3119 3120 3120 3120 3120 3120 3120 3120 3119 3119 3119 3119 3118 3118 3118 3117 3117 3116 3116 3116 3115 3115 3115 3115 3115 3114 3114 3114 3114 3113 3112 3112 3111 3111 3111 3110 3109 3108 3108 3108 3108 3107 3106 3105 3105 3104 3103 3103 3102 3103
3066 3067 3069 3070 3071 3073 3075 3076 3078 3079 3081 3083 3085 3086 3088 3090 3092 3093 3095 3097 3099 3100 3102 3104 3105 3106 3107 3108 3109 3110 3111 3113 3113 3114 3114 3115 3116 3117 3117 3117 3117 3117 3117 3117 3117 3117 3117 3116 3115 3115 3115 3114 3114 3114 3113 3113 3113 3112 3112 3112 3112 3112 3111 3111 3111 3111 3110 3110 3109 3109 3108 3107 3107 3106 3105 3105 3105 3105 3105 3103 3102 3102 3102 3101 3100 3099 3099
3063 3065 3066 3067 3068 3070 3071 3073 3075 3077 3078 3079 3080 3082 3084 3087 3089 3091 3093 3094 3096 3098 3100 3101 3103 3104 3105 3106 3107 3109 3110 3111 3111 3112 3112 3113 3114 3114 3115 3115 3114 3114 3114 3113 3113 3113 3113 3112 3112 3112 3112 3111 3111 3111 3110 3110 3109 3109 3109 3109 3109 3108 3108 3108 3108 3108 3108 3107 3106 3106 3106 3105 3104 3103 3103 3102 3101 3101 3101 3100 3100 3100 3099 3098 3097 3096 3095
3061 3062 3063 3064 3065 3067 3068 3070 3072 3074 3075 3075 3076 3077 3079 3082 3085 3087 3089 3091 3093 3095 3097 3099 3100 3101 3103 3104 3105 3107 3108 3108 3109 3110 3110 3111 3111 3112 3112 3112 3112 3111 3110 3110 3110 3110 3109 3109 3108 3108 3108 3108 3108 3107 3107 3107 3106 3106 3106 3106 3106 3105 3105 3104 3104 3104 3104 3104 3104 3103 3103 3102 3101 3101 3100 3099 3098 3098 3098 3097 3097 3096 3096 3095 3094 3094 3093
3059 3060 3061 3061 3062 3064 3065 3067 3068 3070 3071 3072 3073 3073 3075 3077 3080 3082 3086 3088 3091 3093 3094 3096 3098 3099 3100 3102 3103 3104 3105 3106 3107 3108 3108 3108 3109 3109 3109 3109 3109 3108 3108 3108 3108 3107 3106 3105 3105 3105 3105 3105 3105 3104 3104 3104 3103 3103 3103 3103 3103 3103 3102 3102 3101 3101 3101 3101 3100 3100 3100 3099 3098 3098 3097 3096 3095 3095 3094 3094 3094 3093 3092 3092 3091 3091 3090
3057 3058 3059 3059 3059 3060 3062 3063 3064 3065 3067 3069 3071 3072 3074 3076 3078 3080 3083 3085 3088 3089 3091 3093 3095 3096 3098 3099 3101 3102 3102 3103 3104 3105 3106 3106 3106 3106 3106 3106 3106 3105 3105 3104 3104 3104 3103 3103 3102 3102 3102 3102 3101 3101 3101 3101 3100 3100 3100 3100 3100 3100 3100 3100 3099 3099 3098 3098 3097 3097 3097 3096 3095 3095 3094 3094 3093 3092 3091 3091 3091 3090 3089 3088 3088 3088 3087
3054 3055 3056 3056 3057 3058 3059 3060 3061 3063 3065 3068 3070 3072 3074 3075 3077 3078 3080 3083 3085 3087 3089 3091 3092 3094 3095 3097 3098 3099 3099 3100 3101 3103 3104 3104 3104 3103 3103 3103 3103 3103 3102 3101 3101 3100 3100 3099 3099 3099 3099 3098 3098 3098 3098 3097 3097 3097 3097 3097 3097 3097 3098 3097 3097 3096 3096 3096 3095 3094 3094 3093 3092 3092 3091 3091 3090 3089 3088 3088 3087 3087 3086 3086 3085 3085 3084
3052 3052 3053 3054 3055 3056 3057 3058 3059 3061 3063 3065 3067 3070 3072 3074 3075 3076 3078 3080 3082 3084 3086 3088 3089 3091 3092 3093 3095 3096 3097 3098 3099 3100 3101 3102 3102 3101 3100 3099 3100 3100 3099 3099 3098 3097 3096 3096 3096 3096 3095 3095 3095 3095 3095 3094 3094 3094 3094 3094 3094 3093 3094 3094 3093 3093 3093 3093 3092 3091 3091 3090 3089 3088 3088 3088 3088 3087 3086 3085 3084 3084 3083 3083 3083 3082 3081
3048 3048 3049 3051 3053 3055 3056 3057 3059 3060 3062 3064 3065 3067 3068 3069 3071 3074 3076 3078 3080 3082 3083 3085 3087 3088 3089 3090 3092 3093 3094 3095 3096 3097 3098 3098 3099 3098 3098 3097 3096 3096 3096 3095 3095 3094 3093 3093 3093 3093 3092 3092 3092 3092 3092 3091 3091 3091 3091 3091 3091 3090 3090 3090 3090 3090 3089 3089 3089 3088 3088 3088 3087 3086 3086 3085 3085 3084 3083 3083 3082 3081 3080 3080 3080 3079 3078
3046 3047 3049 3050 3051 3052 3053 3055 3057 3058 3060 3062 3063 3063 3063 3064 3068 3072 3075 3077 3078 3080 3081 3083 3084 3085 3086 3087 3089 3090 3091 3092 3092 3093 3094 3095 3095 3095 3095 3094 3094 3093 3093 3092 3092 3091 3091 3090 3090 3090 3090 3089 3089 3089 3089 3088 3088 3087 3088 3088 3088 3088 3087 3087 3087 3087 3086 3086 3086 3085 3085 3085 3085 3084 3083 3083 3082 3081 3080 3080 3079 3078 3078 3077 3076 3076 3075